Regional Weather Roundup
Issued by NWS Goodland, KS

Home | Current Version | Previous Version | Text Only | Print | Product List | Glossary Off
Versions: 1 2 3 4 5 6 7 8 9 10 11 12 13 14 15 16 17 18 19 20 21 22 23 24 25 26 27 28 29 30 31 32 33 34 35 36 37 38 39 40 41 42 43 44 45 46 47 48 49 50

000
ASUS43 KGLD 250659
RWRGLD

GOODLAND FORECAST AREA HOURLY WEATHER ROUNDUP
NATIONAL WEATHER SERVICE GOODLAND KS
100 AM MDT SAT OCT 25 2014

...OFFICIAL OBSERVATIONS...

CITY           SKY/WX    TMP DP  RH WIND       PRES   REMARKS
GOODLAND KS    CLEAR     45  35  68 CALM      30.13S
HILL CITY KS   CLEAR     48  42  80 CALM      30.05S
IMPERIAL NEB   CLEAR     45  34  65 N7        30.10S
MCCOOK NEB     CLEAR     46  37  71 CALM      30.07S
AKRON CO       CLEAR     58  25  28 S8        30.16S
BURLINGTON CO  CLEAR     47  31  53 W9        30.15S
LIMON CO       CLEAR     39  31  72 N6        30.22S
$$

...UNOFFICIAL OBSERVATIONS...

CITY           SKY/WX    TMP DP  RH WIND       PRES   REMARKS
COLBY KS       CLEAR     54  41  62 SW6       30.09S
NORTON KS      CLEAR     48  36  61 N5        30.05R
SHARON SPRINGS   N/A     54  38  53 SW8         N/A
KIT CARSON CO    N/A     46  32  59 CALM        N/A
YUMA CO          N/A     42  32  67 CALM        N/A
$$



USA.gov is the U.S. government's official web portal to all federal, state and local government web resources and services.